Location: Unspecified
(0.0000°N, 0.0000°E)
Time: 10:18:31
(UTC+00:00)

SR - Pass Details

Date: 16 December 2018
Orbit: 581 x 876 km, 66.7° (Epoch: 18 January)

Event Time Altitude Azimuth Distance (km) Brightness Sun altitude
Rises 01:28:58 0° 233° (SW) 3,443 - -57.5°
Reaches altitude 10° 01:32:27 10° 254° (WSW) 2,519 - -56.9°
Maximum altitude 01:35:53 16° 290° (WNW) 2,126 - -56.3°
Drops below altitude 10° 01:39:18 10° 326° (NW) 2,505 - -55.7°
Sets 01:42:47 0° 347° (NNW) 3,414 - -55.0°
